AAL134 KLAX-EGLL

Flight info

Callsign AAL134
Flight time N/A
Altitude 33000
Route ORCKA5 LAS J146 DVC DCT SNY DCT GILTE/N0486F350 DCT HML DCT YRL DCT 55N090W 60N080W DCT BEPEG/M083F350 DCT EPMAN DCT 67N050W/M083F370 67N040W 66N030W 64N020W DCT BALIX/N0471F370 DCT NINEX DCT AKOMU DCT VAMEB DCT NUGRA
Aircraft B77W/H-SDE1E2E3FGHIJ2J3J4J5M1RWXY/LB1D1

Departure

Time 2026-04-24 03:57
Airport Los Angeles International Airport (KLAX)

Arrival

Time N/A
Airport London Heathrow Airport (EGLL)
Time Latitude Longitude Altitude Speed Heading
2026-04-24 03:08 33.94162 -118.40762 138 ft 0 kts 83°
2026-04-24 03:38 33.94162 -118.40763 138 ft 0 kts 83°
2026-04-24 03:38 33.94161 -118.40778 138 ft 2 kts 83°
2026-04-24 03:39 33.94159 -118.40796 138 ft 2 kts 83°
2026-04-24 03:39 33.94159 -118.40814 137 ft 2 kts 99°
2026-04-24 03:39 33.94162 -118.40832 137 ft 2 kts 114°
2026-04-24 03:39 33.94170 -118.40848 137 ft 2 kts 127°
2026-04-24 03:40 33.94174 -118.40854 137 ft 0 kts 133°
2026-04-24 03:40 33.94155 -118.40839 137 ft 4 kts 166°
2026-04-24 03:40 33.94112 -118.40836 138 ft 7 kts 173°
2026-04-24 03:40 33.94075 -118.40830 138 ft 3 kts 174°
2026-04-24 03:41 33.94069 -118.40829 138 ft 0 kts 174°
2026-04-24 03:45 33.94068 -118.40829 138 ft 0 kts 174°
2026-04-24 03:46 33.94065 -118.40829 138 ft 2 kts 174°
2026-04-24 03:46 33.94029 -118.40824 138 ft 8 kts 174°
2026-04-24 03:47 33.93964 -118.40815 138 ft 8 kts 171°
2026-04-24 03:47 33.93914 -118.40794 139 ft 6 kts 150°
2026-04-24 03:47 33.93887 -118.40771 140 ft 3 kts 142°
2026-04-24 03:47 33.93842 -118.40735 141 ft 8 kts 140°
2026-04-24 03:48 33.93817 -118.40673 141 ft 8 kts 98°
2026-04-24 03:48 33.93818 -118.40595 139 ft 10 kts 85°
2026-04-24 03:48 33.93827 -118.40494 137 ft 13 kts 84°
2026-04-24 03:48 33.93839 -118.40373 134 ft 15 kts 83°
2026-04-24 03:49 33.93853 -118.40238 131 ft 16 kts 83°
2026-04-24 03:49 33.93868 -118.40100 129 ft 16 kts 83°
2026-04-24 03:49 33.93882 -118.39961 127 ft 16 kts 83°
2026-04-24 03:49 33.93897 -118.39825 126 ft 16 kts 82°
2026-04-24 03:50 33.93910 -118.39691 124 ft 16 kts 83°
2026-04-24 03:50 33.93925 -118.39551 121 ft 17 kts 83°
2026-04-24 03:50 33.93939 -118.39406 119 ft 17 kts 83°
2026-04-24 03:50 33.93954 -118.39263 117 ft 17 kts 83°
2026-04-24 03:51 33.93968 -118.39122 116 ft 16 kts 83°
2026-04-24 03:51 33.93982 -118.38988 115 ft 15 kts 83°
2026-04-24 03:51 33.93996 -118.38857 114 ft 15 kts 83°
2026-04-24 03:51 33.94009 -118.38731 113 ft 14 kts 83°
2026-04-24 03:52 33.94021 -118.38610 113 ft 14 kts 84°
2026-04-24 03:52 33.94031 -118.38492 112 ft 14 kts 82°
2026-04-24 03:52 33.94044 -118.38377 111 ft 13 kts 83°
2026-04-24 03:52 33.94055 -118.38264 111 ft 13 kts 84°
2026-04-24 03:53 33.94066 -118.38154 110 ft 13 kts 81°
2026-04-24 03:53 33.94074 -118.38087 109 ft 0 kts 82°
2026-04-24 03:53 33.94075 -118.38076 109 ft 3 kts 84°
2026-04-24 03:53 33.94074 -118.38052 109 ft 0 kts 100°
2026-04-24 03:55 33.94070 -118.38036 109 ft 6 kts 115°
2026-04-24 03:55 33.94030 -118.38001 109 ft 7 kts 169°
2026-04-24 03:56 33.93990 -118.38020 109 ft 6 kts 246°
2026-04-24 03:56 33.93979 -118.38075 109 ft 7 kts 262°
2026-04-24 03:56 33.93977 -118.38102 109 ft 4 kts 264°
2026-04-24 03:56 33.93960 -118.38271 110 ft 49 kts 263°
2026-04-24 03:57 33.93891 -118.38955 115 ft 113 kts 263°
2026-04-24 03:57 33.93773 -118.40127 134 ft 166 kts 263°
2026-04-24 03:57 33.93628 -118.41581 516 ft 181 kts 263°
2026-04-24 03:57 33.93463 -118.43075 1295 ft 181 kts 262°
2026-04-24 03:58 33.93263 -118.44616 1883 ft 192 kts 262°
2026-04-24 03:58 33.93055 -118.46214 2588 ft 197 kts 262°
2026-04-24 03:58 33.92809 -118.47828 3314 ft 201 kts 258°
2026-04-24 03:58 33.92477 -118.49474 4027 ft 204 kts 257°
2026-04-24 03:59 33.92108 -118.51136 4657 ft 210 kts 256°
2026-04-24 03:59 33.91738 -118.52801 5333 ft 211 kts 257°
2026-04-24 03:59 33.91056 -118.54431 5549 ft 231 kts 225°
2026-04-24 03:59 33.89570 -118.55338 5728 ft 251 kts 186°
2026-04-24 04:00 33.87829 -118.54948 6038 ft 262 kts 148°
2026-04-24 04:00 33.86610 -118.53384 6588 ft 262 kts 113°
2026-04-24 04:00 33.86356 -118.51235 7100 ft 264 kts 78°
2026-04-24 04:00 33.87178 -118.49287 7574 ft 266 kts 44°
2026-04-24 04:01 33.88582 -118.47858 8177 ft 267 kts 36°
2026-04-24 04:01 33.90070 -118.46496 8744 ft 271 kts 35°
2026-04-24 04:01 33.91594 -118.45111 9266 ft 276 kts 34°
2026-04-24 04:01 33.93057 -118.43581 9807 ft 283 kts 47°
2026-04-24 04:02 33.94236 -118.41671 10370 ft 287 kts 53°
2026-04-24 04:02 33.95361 -118.39668 10902 ft 292 kts 53°
2026-04-24 04:02 33.96530 -118.37588 11201 ft 309 kts 53°
2026-04-24 04:02 33.97765 -118.35406 11497 ft 326 kts 53°
2026-04-24 04:03 33.99094 -118.33060 11790 ft 344 kts 53°
2026-04-24 04:03 34.00473 -118.30624 12093 ft 362 kts 53°
2026-04-24 04:03 34.01922 -118.28070 12441 ft 378 kts 53°
2026-04-24 04:03 34.03441 -118.25391 12822 ft 393 kts 53°
2026-04-24 04:04 34.05008 -118.22628 13179 ft 408 kts 53°
2026-04-24 04:04 34.06622 -118.19777 13775 ft 415 kts 53°
2026-04-24 04:04 34.08258 -118.16882 14516 ft 419 kts 53°
2026-04-24 04:04 34.09894 -118.13988 15232 ft 423 kts 53°
2026-04-24 04:05 34.11552 -118.11052 15858 ft 428 kts 53°
2026-04-24 04:05 34.13239 -118.08062 16505 ft 432 kts 53°
2026-04-24 04:05 34.14945 -118.05037 17154 ft 437 kts 53°
2026-04-24 04:05 34.16658 -118.01994 17745 ft 442 kts 53°
2026-04-24 04:06 34.18394 -117.98911 18357 ft 446 kts 53°
2026-04-24 04:06 34.20134 -117.95818 18988 ft 450 kts 53°
2026-04-24 04:06 34.21905 -117.92664 19614 ft 453 kts 53°
2026-04-24 04:06 34.23681 -117.89500 20204 ft 457 kts 53°
2026-04-24 04:07 34.25464 -117.86320 20784 ft 461 kts 53°
2026-04-24 04:07 34.27263 -117.83110 21339 ft 465 kts 53°
2026-04-24 04:07 34.29095 -117.79838 21851 ft 469 kts 53°
2026-04-24 04:07 34.30944 -117.76531 22397 ft 473 kts 53°
2026-04-24 04:08 34.32792 -117.73226 22882 ft 477 kts 53°
2026-04-24 04:08 34.34689 -117.69828 23424 ft 481 kts 53°
2026-04-24 04:08 34.36610 -117.66484 23929 ft 483 kts 51°
2026-04-24 04:08 34.38592 -117.63183 24403 ft 487 kts 50°
2026-04-24 04:09 34.40577 -117.59881 24867 ft 491 kts 50°
2026-04-24 04:09 34.42616 -117.56481 25341 ft 495 kts 50°
2026-04-24 04:09 34.44615 -117.53140 25776 ft 499 kts 51°
2026-04-24 04:09 34.46672 -117.49696 26222 ft 503 kts 50°
2026-04-24 04:10 34.48724 -117.46252 26700 ft 506 kts 50°
2026-04-24 04:10 34.50788 -117.42783 27171 ft 509 kts 51°
2026-04-24 04:10 34.52869 -117.39284 27597 ft 513 kts 50°
2026-04-24 04:11 34.57055 -117.32229 28425 ft 521 kts 51°
2026-04-24 04:11 34.59161 -117.28672 28818 ft 524 kts 51°
2026-04-24 04:11 34.61299 -117.25058 29232 ft 528 kts 51°
2026-04-24 04:11 34.63452 -117.21414 29790 ft 528 kts 51°
2026-04-24 04:12 34.65572 -117.17823 30390 ft 526 kts 51°
2026-04-24 04:12 34.67706 -117.14201 30949 ft 526 kts 51°
2026-04-24 04:12 34.69840 -117.10579 31467 ft 526 kts 51°
2026-04-24 04:12 34.71946 -117.07000 31920 ft 526 kts 51°
2026-04-24 04:13 34.74081 -117.03369 32381 ft 526 kts 51°
2026-04-24 04:13 34.76225 -116.99718 32799 ft 527 kts 51°
2026-04-24 04:13 34.78355 -116.96087 33016 ft 531 kts 51°
2026-04-24 04:13 34.80542 -116.92358 33006 ft 530 kts 51°
2026-04-24 04:14 34.84921 -116.84871 33014 ft 527 kts 51°
2026-04-24 04:14 34.89317 -116.77342 33002 ft 527 kts 51°
2026-04-24 04:15 34.93953 -116.70141 32985 ft 523 kts 43°
2026-04-24 04:15 34.98924 -116.63610 32967 ft 521 kts 43°
2026-04-24 04:16 35.03943 -116.57012 32969 ft 521 kts 42°
2026-04-24 04:16 35.08911 -116.50462 32960 ft 524 kts 43°
2026-04-24 04:17 35.13858 -116.43924 32966 ft 523 kts 43°
2026-04-24 04:17 35.18852 -116.37305 32964 ft 523 kts 43°
2026-04-24 04:18 35.23844 -116.30677 32968 ft 525 kts 43°
2026-04-24 04:18 35.28806 -116.24075 32972 ft 524 kts 43°
2026-04-24 04:19 35.33743 -116.17493 32970 ft 523 kts 43°
2026-04-24 04:19 35.38678 -116.10899 32971 ft 525 kts 43°
2026-04-24 04:20 35.43647 -116.04248 32976 ft 524 kts 43°
2026-04-24 04:20 35.48618 -115.97581 32994 ft 525 kts 43°
2026-04-24 04:21 35.53575 -115.90919 33004 ft 524 kts 43°
2026-04-24 04:21 35.58604 -115.84147 33006 ft 524 kts 43°
2026-04-24 04:22 35.63524 -115.77510 33008 ft 525 kts 43°
2026-04-24 04:22 35.68451 -115.70754 33016 ft 523 kts 44°
2026-04-24 04:23 35.73390 -115.63952 33021 ft 523 kts 43°
2026-04-24 04:23 35.78291 -115.57190 33026 ft 523 kts 43°
2026-04-24 04:24 35.83183 -115.50432 33039 ft 524 kts 43°
2026-04-24 04:24 35.88092 -115.43636 33025 ft 524 kts 43°
2026-04-24 04:25 35.92979 -115.36858 33024 ft 524 kts 43°
2026-04-24 04:25 35.97859 -115.30075 32992 ft 524 kts 44°
2026-04-24 04:26 36.02712 -115.23318 32977 ft 525 kts 44°
2026-04-24 04:26 36.07324 -115.16223 32959 ft 532 kts 54°
2026-04-24 04:27 36.10456 -115.07904 32963 ft 539 kts 66°
2026-04-24 04:27 36.13173 -114.99123 32956 ft 539 kts 66°
2026-04-24 04:28 36.15859 -114.90393 32961 ft 540 kts 66°
2026-04-24 04:28 36.18530 -114.81683 32964 ft 540 kts 66°
2026-04-24 04:29 36.21215 -114.72920 32970 ft 540 kts 66°
2026-04-24 04:29 36.23886 -114.64182 32984 ft 538 kts 66°
2026-04-24 04:30 36.26544 -114.55460 32989 ft 541 kts 66°
2026-04-24 04:30 36.29211 -114.46677 32984 ft 540 kts 66°
2026-04-24 04:31 36.31869 -114.37898 32999 ft 540 kts 66°
2026-04-24 04:31 36.34528 -114.29092 32980 ft 540 kts 67°
2026-04-24 04:32 36.37207 -114.20188 32978 ft 540 kts 66°
2026-04-24 04:32 36.39831 -114.11437 32969 ft 539 kts 67°
2026-04-24 04:33 36.42478 -114.02586 32974 ft 542 kts 67°
2026-04-24 04:33 36.45105 -113.93771 32989 ft 540 kts 66°
2026-04-24 04:34 36.47719 -113.84975 33005 ft 541 kts 66°
2026-04-24 04:34 36.50318 -113.76202 33025 ft 540 kts 66°
2026-04-24 04:35 36.52947 -113.67300 33047 ft 541 kts 67°
2026-04-24 04:35 36.55536 -113.58501 33060 ft 541 kts 67°
2026-04-24 04:36 36.58144 -113.49612 33063 ft 542 kts 66°
2026-04-24 04:36 36.60759 -113.40672 33061 ft 541 kts 66°
2026-04-24 04:37 36.63347 -113.31792 33061 ft 542 kts 67°
2026-04-24 04:37 36.65939 -113.22858 33061 ft 542 kts 67°
2026-04-24 04:38 36.68510 -113.13969 33071 ft 542 kts 67°
2026-04-24 04:38 36.71078 -113.05057 33071 ft 544 kts 67°
2026-04-24 04:39 36.73658 -112.96079 33080 ft 543 kts 67°
2026-04-24 04:39 36.76218 -112.87137 33073 ft 543 kts 67°
2026-04-24 04:40 36.78765 -112.78215 33071 ft 545 kts 67°
2026-04-24 04:40 36.81310 -112.69270 33081 ft 546 kts 67°
2026-04-24 04:41 36.83832 -112.60376 33081 ft 545 kts 67°
2026-04-24 04:41 36.86388 -112.51331 33081 ft 546 kts 67°
2026-04-24 04:42 36.88925 -112.42326 33081 ft 546 kts 67°
2026-04-24 04:42 36.91455 -112.33284 33078 ft 545 kts 68°
2026-04-24 04:43 36.93989 -112.24235 33075 ft 546 kts 67°
2026-04-24 04:43 36.96498 -112.15251 33078 ft 547 kts 68°
2026-04-24 04:44 36.99020 -112.06187 33080 ft 546 kts 68°
2026-04-24 04:44 37.01528 -111.97144 33096 ft 548 kts 68°
2026-04-24 04:45 37.04037 -111.88068 33099 ft 548 kts 68°
2026-04-24 04:45 37.06518 -111.79058 33095 ft 548 kts 68°
2026-04-24 04:46 37.09003 -111.70008 33087 ft 549 kts 67°
2026-04-24 04:46 37.11482 -111.60944 33088 ft 548 kts 67°
2026-04-24 04:47 37.13943 -111.51915 33077 ft 547 kts 67°
2026-04-24 04:47 37.16421 -111.42797 33062 ft 548 kts 68°
2026-04-24 04:48 37.18869 -111.33752 33061 ft 547 kts 68°
2026-04-24 04:48 37.21315 -111.24691 33035 ft 550 kts 68°
2026-04-24 04:49 37.23754 -111.15614 33028 ft 548 kts 68°
2026-04-24 04:49 37.26191 -111.06506 33038 ft 547 kts 68°
2026-04-24 04:50 37.28653 -110.97276 33047 ft 550 kts 68°
2026-04-24 04:50 37.31082 -110.88135 33043 ft 548 kts 68°
2026-04-24 04:51 37.33522 -110.78922 33053 ft 553 kts 68°
2026-04-24 04:51 37.35926 -110.69808 33039 ft 549 kts 68°
2026-04-24 04:52 37.38340 -110.60628 33049 ft 550 kts 68°
2026-04-24 04:52 37.40741 -110.51468 33047 ft 551 kts 68°
2026-04-24 04:53 37.43138 -110.42284 33053 ft 549 kts 68°
2026-04-24 04:53 37.45531 -110.33084 33054 ft 552 kts 69°
2026-04-24 04:54 37.47917 -110.23878 33062 ft 551 kts 69°
2026-04-24 04:54 37.50317 -110.14587 33060 ft 553 kts 69°
2026-04-24 04:55 37.52705 -110.05304 33048 ft 552 kts 69°
2026-04-24 04:55 37.55101 -109.95960 33060 ft 555 kts 69°
2026-04-24 04:56 37.57469 -109.86684 33056 ft 552 kts 69°
2026-04-24 04:56 37.59837 -109.77381 33063 ft 556 kts 69°
2026-04-24 04:57 37.62173 -109.68160 33066 ft 552 kts 69°
2026-04-24 04:57 37.64520 -109.58868 33050 ft 553 kts 69°
2026-04-24 04:58 37.66842 -109.49641 33053 ft 554 kts 69°
2026-04-24 04:58 37.69173 -109.40340 33054 ft 552 kts 69°
2026-04-24 04:59 37.71505 -109.31007 33065 ft 554 kts 69°
2026-04-24 04:59 37.73809 -109.21744 33066 ft 554 kts 69°
2026-04-24 05:00 37.76110 -109.12460 33065 ft 553 kts 70°
2026-04-24 05:00 37.78406 -109.03162 33080 ft 554 kts 70°
2026-04-24 05:01 37.80963 -108.94028 33080 ft 547 kts 59°
2026-04-24 05:01 37.85067 -108.85983 33098 ft 540 kts 46°
2026-04-24 05:02 37.89642 -108.78477 33078 ft 535 kts 46°
2026-04-24 05:02 37.94228 -108.70920 33110 ft 539 kts 46°
2026-04-24 05:03 37.98759 -108.63408 33123 ft 538 kts 46°
2026-04-24 05:03 38.03326 -108.55806 33123 ft 539 kts 46°
2026-04-24 05:04 38.07884 -108.48193 33135 ft 542 kts 47°
2026-04-24 05:04 38.12442 -108.40556 33147 ft 538 kts 47°
2026-04-24 05:05 38.16927 -108.33021 33148 ft 538 kts 47°
2026-04-24 05:05 38.21468 -108.25377 33163 ft 538 kts 48°
2026-04-24 05:06 38.26012 -108.17705 33153 ft 538 kts 47°
2026-04-24 05:06 38.30527 -108.10065 33172 ft 537 kts 48°
2026-04-24 05:07 38.35012 -108.02457 33156 ft 539 kts 48°
2026-04-24 05:07 38.39550 -107.94743 33162 ft 537 kts 48°
2026-04-24 05:08 38.44041 -107.87087 33111 ft 535 kts 48°
2026-04-24 05:08 38.48494 -107.79481 33112 ft 534 kts 48°
2026-04-24 05:09 38.52920 -107.71904 33176 ft 536 kts 48°
2026-04-24 05:09 38.57378 -107.64251 33173 ft 530 kts 48°
2026-04-24 05:10 38.61836 -107.56586 33190 ft 536 kts 48°
2026-04-24 05:10 38.66309 -107.48870 33204 ft 532 kts 48°
2026-04-24 05:11 38.70714 -107.41254 33197 ft 528 kts 48°
2026-04-24 05:11 38.75114 -107.33634 33165 ft 532 kts 49°
2026-04-24 05:12 38.79507 -107.26003 33110 ft 530 kts 49°
2026-04-24 05:12 38.83890 -107.18374 33136 ft 529 kts 49°
2026-04-24 05:13 38.90452 -107.06918 33136 ft 530 kts 49°
2026-04-24 05:14 38.94839 -106.99236 33115 ft 526 kts 49°
2026-04-24 05:14 38.99150 -106.91669 33105 ft 526 kts 49°
2026-04-24 05:15 39.03503 -106.84010 33102 ft 525 kts 49°
2026-04-24 05:15 39.07848 -106.76347 33103 ft 524 kts 50°
2026-04-24 05:16 39.12165 -106.68718 33099 ft 526 kts 50°
2026-04-24 05:16 39.16484 -106.61064 33095 ft 524 kts 49°
2026-04-24 05:17 39.20810 -106.53381 33087 ft 528 kts 50°
2026-04-24 05:17 39.25131 -106.45687 33098 ft 525 kts 50°
2026-04-24 05:18 39.29430 -106.38013 33112 ft 525 kts 49°
2026-04-24 05:18 39.33698 -106.30377 33095 ft 523 kts 50°
2026-04-24 05:19 39.37957 -106.22739 33077 ft 525 kts 50°
2026-04-24 05:19 39.42253 -106.15018 33067 ft 526 kts 50°
2026-04-24 05:20 39.46477 -106.07405 33060 ft 526 kts 50°
2026-04-24 05:20 39.50777 -105.99637 33058 ft 523 kts 50°
2026-04-24 05:21 39.55015 -105.91964 33064 ft 527 kts 50°
2026-04-24 05:21 39.59252 -105.84272 33044 ft 523 kts 50°
2026-04-24 05:22 39.63477 -105.76586 33052 ft 525 kts 50°
2026-04-24 05:22 39.67726 -105.68837 33042 ft 525 kts 50°
2026-04-24 05:23 39.71946 -105.61121 33052 ft 525 kts 50°
2026-04-24 05:23 39.76173 -105.53372 33062 ft 523 kts 50°
2026-04-24 05:24 39.80440 -105.45535 33039 ft 528 kts 50°
2026-04-24 05:24 39.84632 -105.37811 33034 ft 524 kts 50°
2026-04-24 05:25 39.88873 -105.29981 32988 ft 526 kts 51°
2026-04-24 05:25 39.93088 -105.22179 32931 ft 525 kts 51°
2026-04-24 05:26 39.97317 -105.14329 32932 ft 525 kts 51°
2026-04-24 05:26 40.01528 -105.06497 32916 ft 526 kts 51°
2026-04-24 05:27 40.05758 -104.98610 32899 ft 529 kts 51°
2026-04-24 05:27 40.09997 -104.90685 32895 ft 525 kts 51°